Location: Blanot
(47.1713°N, 4.2340°E)
Time: 04:25:48
(UTC+00:00)

ADEOS II - Pass Details

Date: 14 July 2020
Orbit: 799 x 801 km, 98.5° (Epoch: 06 August)

Event Time Altitude Azimuth Distance (km) Brightness Sun altitude
Rises 02:57:11 0° 8° (N) 3,322 6.3 -9.2°
Reaches altitude 10° 02:59:37 10° 2° (N) 2,387 5.3 -8.9°
Maximum altitude 03:04:32 41° 293° (WNW) 1,145 2.8 -8.4°
Drops below altitude 10° 03:09:25 10° 224° (SW) 2,371 3.8 -7.8°
Enters shadow 03:09:33 - 224° (SW) 2,418 3.9 -7.8°
